Regional Weather Roundup
Issued by NWS

Home | Current Version | Previous Version | Graphics & Text | Print | Product List | Glossary On
Versions: 1 2 3 4 5 6 7 8 9 10 11 12 13 14 15 16 17 18 19 20 21 22 23 24 25 26 27
000
ASUS45 KBOU 291507
RWRCO

WEATHER ROUNDUP FOR COLORADO
NATIONAL WEATHER SERVICE DENVER/BOULDER CO
900 AM MDT FRI JUL 29 2016

NOTE: "FAIR" INDICATES FEW OR NO CLOUDS BELOW 12000 FEET WITH NO
SIGNIFICANT WEATHER AND/OR OBSTRUCTIONS TO VISIBILITY.

COZ001>005-013-030-031-291600-
...NORTHWEST COLORADO...

CITY           SKY/WX    TMP DP  RH WIND       PRES   REMARKS
CRAIG          FAIR      63  40  42 CALM      30.27S
HAYDEN         FAIR      63  36  36 E5        30.28F
MEEKER         FAIR      63  38  39 SW3       30.28S
MOUNT WERNER   NOT AVBL
STEAMBOAT SPGS FAIR      57  38  48 CALM      30.31S
WALDEN         FAIR      55  43  62 CALM      30.40S
$$

COZ006>008-011-291600-
...WEST CENTRAL VALLEYS...

CITY           SKY/WX    TMP DP  RH WIND       PRES   REMARKS
GRAND JUNCTION FAIR      78  38  23 SE7       30.12R
MONTROSE       FAIR      76  39  26 W6        30.20S
EAGLE          SUNNY     61  34  36 CALM      30.31S
RIFLE          FAIR      69  40  34 CALM      30.20F
DELTA          NOT AVBL
NUCLA          NOT AVBL
$$

COZ017>023-064>068-291600-
...SOUTHWEST COLORADO...

CITY           SKY/WX    TMP DP  RH WIND       PRES   REMARKS
DURANGO        FAIR      71  41  33 NE3       30.27R
CORTEZ         FAIR      73  40  30 CALM      30.20S
PAGOSA SPRINGS FAIR      70  38  30 CALM      30.36S
TELLURIDE      FAIR      64  36  35 CALM      30.49R
WOLF CREEK PAS FAIR      54  36  50 SW7       30.71R
$$

COZ009-010-012-014-032>034-037-058>063-291600-
...CENTRAL COLORADO...

CITY           SKY/WX    TMP DP  RH WIND       PRES   REMARKS
ASPEN          FAIR      65  36  34 SE3       30.34F
BUENA VISTA    FAIR      63  50  63 SE3       30.37S
COPPER MTN     FAIR      59  28  31 NW15G21   30.66R
BERTHOUD PASS  FAIR      45  32  61 N17       30.67R
COTTONWOOD PAS FAIR      61  46  59 CALM      30.49S
GUNNISON       FAIR      57  34  41 NE3       30.39F
KREMMLING      FAIR      59  36  41 CALM      30.36F
LEADVILLE      FAIR      62  35  36 CALM      30.48F
MONARCH PASS   FAIR      52  32  46 MISG      30.74F
SALIDA         FAIR      65  54  66 CALM      30.41F
SUNLIGHT       FAIR      61  30  31 MISG      30.61R
WILKERSON PASS FAIR      55  36  47 N9        30.61S
$$

COZ069>075-291600-
...SAN LUIS VALLEY/SANGRE DE CRISTO MOUNTAINS...

CITY           SKY/WX    TMP DP  RH WIND       PRES   REMARKS
ALAMOSA        FAIR      65  44  46 VRB3      30.32F
LA VETA PASS   FAIR      61  41  48 S8        30.51R
SAGUACHE       FAIR      68  37  32 NW8       30.36S
$$

COZ035-036-038>040-291600-
...NORTHERN COLORADO FRONT RANGE...

CITY           SKY/WX    TMP DP  RH WIND       PRES   REMARKS
DENVER INTL AP FAIR      70  57  63 N5        30.20S
DMNS CITY PARK   N/A     72  59  64 NE5       30.20S
AURORA         MOSUNNY   70  59  69 NW6       30.22R
FRONT RANGE AP MOSUNNY   70  59  68 CALM      30.22R
ERIE MUNI ARPT CLOUDY    70  59  68 CALM      30.19S
BOULDER MUN AP NOT AVBL
CENTENNIAL     FAIR      67  59  75 NW6       30.22S
BROOMFIELD     PTSUNNY   68  59  73 N8        30.22S
LONGMONT       NOT AVBL
$$

COZ041-046-047-076>085-087-088-291600-
...PIKES PEAK/PALMER DIVIDE AND SOUTHERN FOOTHILLS...

CITY           SKY/WX    TMP DP  RH WIND       PRES   REMARKS
COLO. SPRINGS  PTSUNNY   64  57  78 S5        30.27R
A. F. ACADEMY  PTSUNNY   66  56  71 NW5       30.26S
SCHRIEVER AFB  NOT AVBL
ELLICOTT       NOT AVBL
FALCON         NOT AVBL
FORT CARSON    CLOUDY    63  59  86 SE8       30.23R
LIMON          PTSUNNY   64  59  83 SE6       30.22F
MONUMENT HILL  FAIR      63  55  77 N3        30.32R
TRINIDAD       NOT AVBL
$$

COZ042>045-048>051-090-091-291600-
...NORTHEAST COLORADO...

CITY           SKY/WX    TMP DP  RH WIND       PRES   REMARKS
GREELEY ARPT   FAIR      70  61  73 E3        30.19S
AKRON          PTSUNNY   68  58  70 SE7       30.20R
BURLINGTON     CLOUDY    65  60  84 E3        30.20S
WRAY           NOT AVBL
STERLING       NOT AVBL
HOLYOKE        NOT AVBL
FORT MORGAN    NOT AVBL
$$

COZ086-089-092>099-291600-
...SOUTHEAST COLORADO...

CITY           SKY/WX    TMP DP  RH WIND       PRES   REMARKS
PUEBLO         CLOUDY    67  61  81 SE9       30.17F
LA JUNTA       FAIR      68  61  78 E9        30.15F
LAMAR          FAIR      67  62  84 SE8       30.12F
SPRINGFIELD      N/A     65  61  87 CALM      30.17F
$$




USA.gov is the U.S. government's official web portal to all federal, state and local government web resources and services.